Regional Weather Roundup
Issued by NWS

Home | Current Version | Previous Version | Graphics & Text | Print | Product List | Glossary On
Versions: 1 2 3 4 5 6 7 8 9 10 11 12 13 14 15 16 17 18 19 20 21 22 23 24 25 26 27 28 29 30 31 32 33 34 35 36 37 38 39 40 41 42 43 44 45 46 47 48 49 50
000
ASUS45 KTFX 292010
RWRMT
MONTANA REGIONAL WEATHER ROUNDUP
NATIONAL WEATHER SERVICE GREAT FALLS MT
200 PM MDT WED MAR 29 2017

NOTE: "FAIR" INDICATES FEW OR NO CLOUDS BELOW 12000 FEET WITH NO
SIGNIFICANT WEATHER AND/OR OBSTRUCTIONS TO VISIBILITY.

MTZ001>007-043-292100-
WEST OF THE DIVIDE

CITY           SKY/WX    TMP DP  RH WIND       PRES   REMARKS
KALISPELL      CLOUDY    44  39  82 S13       29.93F
MISSOULA       CLOUDY    48  38  68 SE8       29.95F
BUTTE          CLOUDY    48  29  47 S7        29.98F
MULLAN PASS    SNOW      34  32  92 VRB7      29.89F VSB 1/4 WCI  28
ANACONDA         N/A     48  32  53 S18G28    29.95F
DEER LODGE       N/A     50  32  50 S14G21    29.96F
EUREKA           N/A     45  37  76 SE15G22   29.89F
HAMILTON         N/A     54  36  50 S17       29.95F
PLAINS           N/A     46  37  70 CALM      29.95F
RONAN            N/A     50  39  65 S14       29.97F
$$

MTZ008-052>055-292100-
SOUTHWEST MONTANA

CITY           SKY/WX    TMP DP  RH WIND       PRES   REMARKS
BOZEMAN        CLOUDY    50  34  54 E6        29.99F
DILLON         CLOUDY    53  29  39 SW21G28   29.98F
W YELLOWSTONE  CLOUDY    34  27  75 S16       30.14F WCI  23
ENNIS          MOSUNNY   48  27  43 S29G37    30.06F
THREE FORKS      N/A     54  54 100 S15       29.97F
TWIN BRIDGES     N/A     55  26  32 SE9       29.97F
$$

MTZ009-010-012-014-046-048-049-054-292100-
EAST SLOPES AND CENTRAL MONTANA

CITY           SKY/WX    TMP DP  RH WIND       PRES   REMARKS
CUT BANK       CLOUDY    51  28  41 S16       29.85F
GREAT FALLS    CLOUDY    45  38  76 S13       29.92F
MALMSTROM AFB  LGT RAIN  46  37  71 SW21      29.93F
HELENA         CLOUDY    51  35  54 S12       29.95F
AUGUSTA        PTSUNNY   49  32  51 S24       29.87F
BOWMANS CRNR     N/A     48  33  55 S25G35    29.88F
CHOTEAU          N/A     50  30  46 S13G20    29.89F
CONRAD           N/A     52  38  58 SE14      29.91F
FAIRFIELD        N/A     49  29  44 S21G28    29.89F
POWER          LGT RAIN  46  35  67 S14       29.90F
RAYNESFORD     PTSUNNY   51  30  45 SW12      29.92F
$$

MTZ011-013-016-021-045-047-050-051-292100-
NORTH CENTRAL MONTANA

CITY           SKY/WX    TMP DP  RH WIND       PRES   REMARKS
HAVRE          PTSUNNY   57  29  34 SW13      29.90F
LEWISTOWN      CLOUDY    55  25  31 W12       29.92F
N BAR RANCH      N/A     52  25  35 VRB6      29.95F
CHINOOK          N/A     55  27  33 W10G17    29.91F
DENTON           N/A     55  28  35 S9        29.88F
FORT BENTON      N/A     57  28  33 MISG      29.91
GEYSER           N/A     55  27  34 W14G24    29.91F
GRASS RANGE      N/A     54  26  34 SE6       29.90F
JUDITH GAP     PTSUNNY   51  25  35 SW16G24   29.94F
STANFORD       PTSUNNY   52  26  36 S6        29.91F
WINIFRED         N/A     55  28  36 SW10      29.92F
$$

MTZ017>020-022>027-061-062-292100-
NORTHEAST MONTANA

CITY           SKY/WX    TMP DP  RH WIND       PRES   REMARKS
GLASGOW        PTSUNNY   57  27  31 W16       29.93F
JORDAN           N/A     57  27  31 W12G23    29.95F
SIDNEY         MOSUNNY   62  30  29 SW17G26   29.93F
WOLF POINT     MOSUNNY   62  29  28 W17       29.93F
MALTA          SUNNY     57  28  33 W10G17    29.92F
PLENTYWOOD       N/A     57  28  33 W15G21    29.89F
POPLAR           N/A     57  28  33 W13G22    29.94F
SCOBEY           N/A     58  25  28 W12       29.89F
$$

MTZ028>42-056>058-292100-
SOUTHCENTRAL AND SOUTHEAST MONTANA

CITY           SKY/WX    TMP DP  RH WIND       PRES   REMARKS
BAKER          SUNNY     59  28  30 W16G25    29.97F
BILLINGS       CLOUDY    54  30  40 CALM      29.97F
LIVINGSTON     CLOUDY    57  27  31 SW23G39   29.96F
MILES CITY     PTSUNNY   57  28  33 SW12G20   29.98F
BIG TIMBER     MOSUNNY   55  27  33 W22G28    29.98F
EKALAKA          N/A     57  27  32 W16       29.97F
FORSYTH          N/A     54  28  37 CALM      29.99F
HARLOWTON      PTSUNNY   52  25  35 SE8       29.95F
LAUREL           N/A     56  32  40 NE3       29.96F
$$

REGIONAL REPORTS...DAKOTAS

CITY           SKY/WX    TMP DP  RH WIND       PRES   REMARKS
WILLISTON      SUNNY     62  32  32 W16       29.93F
MINOT          SUNNY     60  41  49 SW22      29.94F
DICKINSON      MOSUNNY   60  30  32 SW14G23   29.94F
BEACH            N/A     61  28  29 W13G22    29.98F
TIOGA            N/A     57  37  47 W17G24    29.94F
WATFORD CITY     N/A     61  36  39 W15G23    29.93F
BISMARCK       CLOUDY    61  39  44 S15       30.01F
GRAND FORKS    MOSUNNY   60  46  59 S12       30.07F
FARGO          CLOUDY    61  40  45 S17       30.10F
BUFFALO SD       N/A     61  33  35 W8        29.93F
RAPID CITY     SUNNY     55  40  56 VRB3      30.02F
$$

REGIONAL REPORTS...WYOMING/IDAHO/WASHINGTON

CITY           SKY/WX    TMP DP  RH WIND       PRES   REMARKS
GILLETTE       SUNNY     57  25  29 E5        30.00F
SHERIDAN       CLOUDY    57  29  34 NE7       29.99F
BUFFALO WY     CLOUDY    56  23  27 SE8       30.00F
CODY           MOSUNNY   56  24  29 SW10      30.00F
YELLOWSTONE LA   N/A     35  25  66 VRB3      30.14F
IDAHO FALLS    CLOUDY    50  32  50 SW20G30   30.15F
SALMON         CLOUDY    55  32  41 S17G24    30.00F
BOISE          CLOUDY    59  35  40 SE10      30.09F
SPOKANE        LGT RAIN  46  44  93 S9        29.88F FOG
$$

REGIONAL REPORTS...ALBERTA

CITY           SKY/WX    TMP DP  RH WIND       PRES   REMARKS
EDMONTON       PTSUNNY   43  39  87 NE5       29.79F FOG
CALGARY        CLOUDY    50  18  27 S12G24    29.77F
LETHBRIDGE     PTSUNNY   52  34  50 S13G26    29.83F
MEDICINE HAT   CLOUDY    57  25  28 S12       29.83F
WATERTON GATE    N/A     45  30  57 SW14G20     N/A
CARDSTON         N/A     52  27  37 W10G17      N/A
MILK RIVER       N/A     50  32  50 SW13        N/A
$$

REGIONAL REPORTS...SASKATCHEWAN

CITY           SKY/WX    TMP DP  RH WIND       PRES   REMARKS
SWIFT CURRENT  MOSUNNY   57  21  24 W14G23    29.82F
REGINA         MOSUNNY   57  32  38 SW10G18   29.82F
SASKATOON      MOSUNNY   52  36  54 W9        29.82S
CYPRESS HILLS    N/A     48  19  32 SW10        N/A
VAL MARIE        N/A     55  25  30 W18G24      N/A
ROCKGLEN         N/A     55  25  30 W18G26      N/A
$$



USA.gov is the U.S. government's official web portal to all federal, state and local government web resources and services.